Miscellaneous Local Product
Issued by NWS North Platte, NE

Home | Current Version | Previous Version | Text Only | Print | Product List | Glossary On
Versions: 1 2 3 4 5 6 7 8 9 10 11 12 13 14 15 16 17 18 19 20 21 22 23 24 25 26 27 28 29 30 31 32 33 34 35 36 37 38 39 40 41 42 43 44 45 46 47 48 49 50
000
AXUS43 KLBF 040610
MISLBF


WESTERN AND NORTH CENTRAL NEBRASKA HOURLY WEATHER ROUNDUP
NATIONAL WEATHER SERVICE NORTH PLATTE NE
100 AM CDT FRI SEP 04 2015

NOTE: "FAIR" INDICATES FEW OR NO CLOUDS BELOW 12,000 FEET WITH NO
SIGNIFICANT WEATHER AND/OR OBSTRUCTIONS TO VISIBILITY.

NOTE: STATIONS NOT REPORTING VARIABLES SUCH AS SKY/WEATHER OR
PRESSURE ARE PROVIDED BY THE NEBRASKA DEPARTMENT OF
ROADS...RAWS...AND APRS NETWORKS...AND ARE NOT UNDER
NATIONAL WEATHER SERVICE QUALITY CONTROL.

...OBSERVATIONS IN AND NEAR THE EASTERN PANHANDLE OF NEBRASKA...

CITY           SKY/WX    TMP DP  RH WIND       PRES   REMARKS
PINE RIDGE     CLOUDY    76  50  40 SW8       29.80F
CHADRON        LGT RAIN  73  54  51 SW9       29.81S
ALLIANCE       CLOUDY    67  55  65 NW5       29.86F
SIDNEY         MOCLDY    59  54  83 CALM      29.91F
CRESCENT LAKE    N/A     70  51  50 NE3         N/A
BIG SPRINGS      N/A     70  59  68 CALM        N/A
$$

...OBSERVATIONS IN NORTH CENTRAL NEBRASKA...

CITY           SKY/WX    TMP DP  RH WIND       PRES   REMARKS
VALENTINE      CLOUDY    76  56  49 NE3       29.75F
THEDFORD       CLOUDY    79  62  57 S9        29.82R
AINSWORTH      CLOUDY    79  63  57 S10       29.77S
O`NEILL        MOCLDY    78  66  66 S9        29.78S
ORD            MOCLDY    73  64  73 CALM      29.78S
BROKEN BOW     CLOUDY    79  61  53 SE6       29.80S
SPRINGVIEW       N/A     72  68  87 CALM        N/A
SARGENT          N/A     74  64  71 CALM        N/A
CHAMBERS         N/A     75  66  73 S6          N/A
EWING            N/A     75  65  71 S5G12       N/A
$$

...OBSERVATIONS IN SOUTHWEST NEBRASKA AND FAR NORTHEAST COLORADO...

CITY           SKY/WX    TMP DP  RH WIND       PRES   REMARKS
WRAY           CLOUDY    66  61  83 W5        29.86S
HOLYOKE        FAIR      68  57  68 N6        29.86F
IMPERIAL       CLOUDY    68  63  84 CALM      29.83S
OGALLALA       LGT RAIN  68  63  84 N9        29.82F
NORTH PLATTE   CLOUDY    69  62  78 NW10      29.82F
MCCOOK         CLOUDY    82  59  45 S6        29.80F
LEXINGTON      CLOUDY    80  61  52 SE8       29.80R
PAXTON           N/A     69  64  83 N7          N/A
BRADY            N/A     75  63  66 CALM        N/A
CALLAWAY         N/A     74  66  75 SW10        N/A
$$

...OBSERVATIONS IN CENTRAL LINCOLN COUNTY AREA...

CITY           SKY/WX    TMP DP  RH WIND       PRES   REMARKS
N.P. AIRPORT   CLOUDY    69  62  78 NW10      29.82F
N.P. DOWNTOWN    N/A     71  62  74 NW6         N/A
N.P. SOUTHEAST   N/A     72  62  72 NW6G13      N/A
N.P. HILLCREST   N/A     72  62  72 NW13G20     N/A
$$

...SOME OBSERVATIONS FROM AROUND THE REGION...

CITY           SKY/WX    TMP DP  RH WIND       PRES   REMARKS
DENVER         PTCLDY    59  53  80 SW8       29.99F
LARAMIE        CLEAR     47  50 100 S6        30.11F
CHEYENNE       CLEAR     56  46  69 W14       30.02S
SCOTTSBLUFF    CLOUDY    66  60  81 CALM      29.87F
RAPID CITY     CLOUDY    71  53  52 SE9       29.78S
PIERRE         MOCLDY    75  70  84 SE8       29.68S
WINNER         FAIR      79  66  64 S6        29.72S
SIOUX FALLS    PTCLDY    77  71  82 SE9       29.81R
OMAHA          PTCLDY    79  68  69 S14       29.85S
GRAND ISLAND   MOCLDY    77  64  64 S15       29.82S
KANSAS CITY    MOCLDY    74  67  78 S8        29.93R
WICHITA        CLOUDY    77  65  66 S13       29.88S
HAYS           CLOUDY    82  57  42 S17G24    29.82S
LIBERAL        PTCLDY    79  55  44 S18       29.89S
GOODLAND       MOCLDY    69  55  60 NW6       29.86S
$$



USA.gov is the U.S. government's official web portal to all federal, state and local government web resources and services.